#timestamp,LO_Frequency,Hit,StdDev 
1582898415.4,286047002.4,N
1582898435.2,286047001.0,N
1582898455.1,286047002.3,N
1582898456.0,286047002.3,N
1582898475.8,286047000.8,N
1582898495.7,286047000.9,N
1582898515.5,286047001.2,N
1582898535.3,286047002.4,N
1582898555.2,286047000.9,N
1582898575.0,286046998.3,N
1582898575.9,286046998.3,N
1582898595.7,286046998.5,N
1582898615.6,286047001.2,N
1582898635.4,286047002.3,N
1582898655.3,286047004.4,N
1582898675.1,286047001.7,N
1582898676.0,286047001.7,N
1582898695.8,286047001.6,N
1582898715.7,286047000.1,N
1582898735.5,286046998.7,N
1582898755.4,286046998.6,N
1582898775.2,286046999.1,N
1582898795.0,286046998.5,N
1582898795.9,286046998.5,N
1582898815.8,286046998.1,N
1582898835.6,286046998.2,N
1582898855.4,286047002.2,N
1582898875.3,286046998.5,N
1582898895.1,286046999.5,N
1582898915.9,286046997.1,N
1582898935.7,286046998.9,N
1582898955.5,286047001.1,N
1582898975.4,286046998.7,N
1582898995.2,286046999.1,N
1582899015.1,286046997.3,N
1582899016.0,286046997.3,N
1582899035.8,286046998.2,N
1582899055.6,286046998.1,N
1582899075.5,286047000.6,N
1582899095.3,286047001.1,N
1582899115.1,286046998.3,N
1582899135.9,286046999.4,N
1582899155.7,286046998.6,N
1582899175.6,286046998.1,N
1582899195.4,286047000.3,N
1582899215.2,286047000.0,N
1582899235.1,286046999.0,N
1582899236.0,286046999.0,N
1582899255.8,286047000.8,N
1582899275.7,286047001.2,N
1582899295.5,286047001.1,N
1582899315.3,286046998.5,N
1582899335.2,286047000.7,N
1582899355.0,286047004.3,Y
1582899355.9,286047004.3,P
1582899375.8,286047004.0,N
1582899395.6,286047003.8,N
1582899415.4,286047004.3,N
1582899435.3,286047003.9,N
1582899455.1,286047003.2,N
1582899475.8,286047002.3,N
1582899495.7,286047000.4,N
1582899515.5,286047001.3,N
1582899535.4,286047002.1,N
1582899555.2,286047001.5,N
1582899575.0,286047001.7,N
1582899575.9,286047001.7,N
1582899595.8,286047002.5,N
1582899615.6,286047000.9,N
1582899635.5,286047001.1,N
1582899655.3,286046999.7,N
1582899675.1,286047002.4,N
1582899695.9,286047004.3,N
1582899715.7,286047003.2,N
1582899735.5,286047001.6,N
1582899755.4,286047004.3,N
1582899775.2,286047002.3,N
1582899795.1,286047002.8,N
1582899796.0,286047002.8,N
1582899815.8,286047000.1,N
1582899835.6,286047000.3,N
1582899855.5,286047000.6,N
1582899875.3,286047001.0,N
1582899895.2,286047001.4,N
1582899915.9,286047002.1,N
1582899935.7,286047001.6,N
1582899955.6,286047002.2,N
1582899975.4,286047002.8,N
1582899995.2,286046998.5,N
1582900015.1,286047001.2,N
1582900016.0,286047001.2,N
1582900035.8,286047002.8,N
1582900055.7,286046999.8,N
1582900075.5,286047001.5,N
1582900095.3,286047002.0,N
1582900115.2,286046999.8,N
1582900135.0,286047003.7,N
1582900135.9,286047003.7,N
1582900155.8,286047004.1,N
1582900175.6,286047002.0,N
1582900225.5,286047001.9,E
1582900235.4,286046999.7,N
1582900255.2,286046999.9,P
1582900275.1,286047000.9,P
1582900276.0,286047000.9,N
1582900295.8,286047000.4,N
1582900315.6,286047000.5,N
1582900335.5,286046998.4,Y
1582900355.3,286046998.8,P
1582900375.2,286047000.5,N
1582900395.0,286047000.0,N
1582900395.9,286047000.0,N
1582900415.7,286047000.3,N
1582900435.6,286047000.1,N
1582900455.4,286047004.2,Y
1582900475.3,286047001.3,P
1582900495.1,286047000.0,N
1582900515.8,286047002.1,P
1582900535.7,286047003.3,Y
1582900555.5,286047002.2,P
1582900575.4,286046999.8,N
1582900595.2,286047000.9,N
1582900615.0,286046999.8,N
1582900615.9,286046999.8,N
1582900635.8,286047001.2,N
1582900655.6,286046998.8,N
1582900675.5,286046998.4,N
1582900695.3,286047000.2,N
1582900715.1,286047001.9,N
1582900735.9,286047000.9,N
1582900755.7,286047000.7,N
1582900775.5,286046999.4,N
1582900795.4,286046996.7,Y
1582900815.2,286046998.7,P
1582900835.1,286047000.6,N
1582900836.0,286047000.6,N
1582900855.8,286046999.0,N
1582900875.6,286046999.2,N
1582900895.5,286046996.7,Y
1582900915.3,286046999.5,P
1582900935.2,286046996.9,P
1582900955.9,286046999.1,N
1582900975.7,286047001.1,N
1582900995.6,286047002.0,N
1582901015.4,286047000.4,N
1582901035.3,286047000.5,N
1582901055.1,286046999.9,N
1582901056.0,286046999.9,N
1582901105.9,286047000.0,E
1582901115.8,286047002.5,N
1582901135.6,286047002.4,P
1582901155.5,286047002.3,P
1582901175.3,286047002.4,Y
1582901195.1,286046998.6,P
1582901215.9,286046999.5,N
1582901235.7,286046998.3,N
1582901255.6,286046999.7,N
1582901275.4,286047000.0,N
1582901295.2,286046998.6,N
1582901315.1,286046999.1,N
1582901316.0,286046999.1,N
1582901335.8,286046996.8,N
1582901355.6,286046997.1,N
1582901375.5,286046998.3,N
1582901395.3,286046998.5,N
1582901415.2,286046998.5,N
1582901435.9,286046999.4,N
1582901455.7,286046998.8,N
1582901475.6,286046996.7,N
1582901495.4,286046997.0,N
1582901515.2,286046999.0,N
1582901565.1,286046996.5,E
1582901575.0,286046998.1,N
1582901575.9,286046998.1,P
1582901595.8,286047003.4,P
1582901615.6,286047005.4,N
1582901635.5,286047005.6,N
1582901655.3,286047002.5,N
1582901675.1,286047001.4,N
1582901695.9,286047002.3,N
1582901715.7,286047002.4,N
1582901735.6,286047004.0,N
1582901755.4,286047002.9,N
1582901775.2,286047002.3,N
1582901795.1,286047003.0,N
1582901796.0,286047003.0,N
1582901815.8,286047003.5,N
1582901835.6,286047000.4,N
1582901855.5,286047000.1,N
1582901875.3,286047002.6,N
1582901895.2,286047001.7,N
1582901915.9,286047005.5,N
1582901935.7,286047004.0,N
1582901955.6,286047001.7,N
1582901975.4,286047002.0,N
1582901995.3,286047000.1,N
